Location: Brunembert
(50.7122°N, 1.8935°E)
Time: 01:58:48
(UTC+00:00)

Cosmos 1500 Rocket - Pass Details

Date: 31 July 2021
Orbit: 602 x 632 km, 82.5° (Epoch: 18 September)

Event Time Altitude Azimuth Distance (km) Brightness Sun altitude
Exits shadow 23:32:33 10° 249° (WSW) 1,985 6.0 -21.0°
Maximum altitude 23:35:43 19° 295° (WNW) 1,489 5.8 -21.1°
Drops below altitude 10° 23:38:57 10° 342° (NNW) 2,017 7.3 -21.1°
Sets 23:41:47 0° 360° (N) 2,934 8.6 -21.2°
